Voltar ao catálogo

TITAN 4B CENTAUR R/B

AtivoUNKNOWN
NORAD 25725·ROCKET BODY·🇺🇸 United States

Lançado Apr 30, 1999 de Cape Canaveral Space Force Station

Loading…

Próximas Passagens (próximas 24 horas)

TLE

AtualizadoSource: Space-Track

Época: Sep 14, 2026, 07:03 UTC

1 25725U 99023B   26257.29413222  .00000028  00000-0  30907-5 0  9995
2 25725  28.3098 235.8803 2383254 129.4743 254.1942  9.67500215265633

Acompanhe TITAN 4B CENTAUR R/B em tempo real com AllMySat

Download on the App Store